Weather in Staryy Utchan

Russia / Udmurt Republic     56°09′44″N   52°20′17″E
temp.,
°C
wind,
m/s
gust,
m/s
humid.,
%
clouds,
%
prec.,
mm/h
press.,
hPa
HPBL,
m
21 april, wed
wed2101:00+2se35535 0.0 103173
04:00+1se3856100 0.0 1031126
07:00+2se41153100 0.0 1030336
10:00+7sse81337100 0.0 1030889
13:00+9sse81231100 0.0 10281154
16:00+10sse71235100 0.0 10271267
19:00+7s61345100 0.0 1026778
22:00+6s51256100 0.1 1025747
22 april, thu
thu2201:00+3sse81793100 1.8 1025823
04:00+2sse71497100 4.6 1025668
07:00+2s61397100 2.5 1026623
10:00+3s61197100 3.0 1026609
13:00+5s61092100 0.0 1027601
16:00+7s697693 0.0 1027827
19:00+5s6108796 0.0 1027590
22:00+4s5990100 0.0 1028445
23 april, fri
fri2301:00+4s4892100 0.0 1027347
04:00+3sse3696100 0.0 1027299
07:00+4sse3595100 0.0 1028283
10:00+6sse448697 0.0 1028478
13:00+8sse3476100 0.0 1027777
16:00+8se4474100 0.0 1027799
19:00+6ese4485100 0.0 1026497
22:00+4ene3690100 0.0 1025201
24 april, sat
sat2401:00+3ene3795100 0.0 1023166
04:00+3ene3896100 0.0 1021194
07:00+4e4693100 0.0 1020218
10:00+5e2698100 1.4 1018234
13:00+6e3698100 0.4 1017277
16:00+6e3597100 0.8 1015225
19:00+6e3698100 0.9 1014234
22:00+5e2498100 1.3 1013141
25 april, sun
sun2501:00+5sse2599100 0.1 1012205
04:00+5se2596100 0.2 1011137
07:00+5se499298 0.0 1009357
10:00+5sw71192100 4.6 10091002
13:00+7wsw8106983 0.2 10111320
16:00+10sw5105141 0.2 10121982
19:00+8sw4761100 0.1 1012166
22:00+4s3391100 1.9 1013213